TimeEDT,TemperatureF,Dew PointF,Humidity,Sea Level PressureIn,VisibilityMPH,Wind Direction,Wind SpeedMPH,Gust SpeedMPH,PrecipitationIn,Events,Conditions,WindDirDegrees,DateUTC
12:54 AM,62.1,54.0,75,29.91,10.0,ESE,3.5,-,N/A,,Overcast,110,2012-10-03 04:54:00
1:54 AM,60.1,57.0,90,29.91,6.0,ESE,6.9,-,0.00,,Overcast,110,2012-10-03 05:54:00
2:18 AM,60.8,57.2,88,29.91,7.0,East,4.6,-,0.00,,Overcast,90,2012-10-03 06:18:00
2:54 AM,60.1,57.0,90,29.91,6.0,Calm,Calm,-,0.00,,Overcast,0,2012-10-03 06:54:00
3:03 AM,60.8,57.2,88,29.91,5.0,East,3.5,-,N/A,,Overcast,90,2012-10-03 07:03:00
3:26 AM,60.8,57.2,88,29.91,4.0,East,3.5,-,N/A,,Overcast,80,2012-10-03 07:26:00
3:54 AM,59.0,57.0,93,29.91,5.0,East,3.5,-,N/A,,Overcast,90,2012-10-03 07:54:00
4:54 AM,60.1,57.0,90,29.91,4.0,East,5.8,-,N/A,,Overcast,100,2012-10-03 08:54:00
5:54 AM,60.1,57.9,93,29.92,3.0,ESE,4.6,-,N/A,,Overcast,110,2012-10-03 09:54:00
6:18 AM,60.8,57.2,88,29.93,2.5,SSE,5.8,-,0.00,Rain,Light Rain,150,2012-10-03 10:18:00
6:40 AM,59.0,57.2,94,29.94,4.0,SSW,10.4,-,0.01,Rain,Light Rain,210,2012-10-03 10:40:00
6:48 AM,59.0,55.4,88,29.94,5.0,SSW,8.1,-,0.01,Rain,Light Rain,210,2012-10-03 10:48:00
6:54 AM,59.0,55.9,90,29.94,6.0,SSW,10.4,-,0.01,Rain,Light Rain,200,2012-10-03 10:54:00
7:04 AM,59.0,55.4,88,29.95,8.0,South,10.4,-,0.00,,Overcast,190,2012-10-03 11:04:00
7:51 AM,57.2,55.4,94,29.96,7.0,SSE,4.6,-,0.00,,Overcast,160,2012-10-03 11:51:00
7:54 AM,57.9,55.0,90,29.96,7.0,South,3.5,-,0.00,,Overcast,170,2012-10-03 11:54:00
8:54 AM,57.9,55.0,90,29.98,6.0,South,8.1,-,N/A,,Overcast,180,2012-10-03 12:54:00
9:27 AM,57.2,55.4,94,29.98,7.0,South,9.2,-,N/A,,Mostly Cloudy,180,2012-10-03 13:27:00
9:34 AM,59.0,55.4,88,29.99,7.0,South,9.2,-,N/A,,Overcast,180,2012-10-03 13:34:00
9:54 AM,59.0,55.0,87,29.99,7.0,South,8.1,-,N/A,,Overcast,170,2012-10-03 13:54:00
10:14 AM,59.0,55.4,88,29.99,9.0,South,10.4,-,N/A,,Overcast,170,2012-10-03 14:14:00
10:54 AM,60.1,55.0,83,29.99,10.0,South,11.5,-,N/A,,Overcast,170,2012-10-03 14:54:00
11:05 AM,60.8,53.6,77,29.99,10.0,South,12.7,-,N/A,,Overcast,180,2012-10-03 15:05:00
11:54 AM,61.0,54.0,78,29.98,10.0,South,8.1,-,N/A,,Overcast,190,2012-10-03 15:54:00
12:54 PM,60.1,54.0,80,29.99,10.0,South,11.5,-,N/A,,Overcast,180,2012-10-03 16:54:00
1:18 PM,59.0,55.4,88,29.99,6.0,South,12.7,-,N/A,,Overcast,170,2012-10-03 17:18:00
1:29 PM,59.0,55.4,88,30.00,5.0,South,5.8,-,0.00,Rain,Light Rain,180,2012-10-03 17:29:00
1:54 PM,59.0,55.9,90,29.99,6.0,South,8.1,-,0.01,Rain,Light Rain,170,2012-10-03 17:54:00
2:54 PM,59.0,55.9,90,29.98,7.0,South,11.5,-,0.00,,Overcast,170,2012-10-03 18:54:00
3:54 PM,59.0,57.0,93,29.99,4.0,South,9.2,-,0.00,Rain,Light Rain,170,2012-10-03 19:54:00
4:54 PM,60.1,57.0,90,29.99,10.0,South,9.2,-,0.00,,Overcast,180,2012-10-03 20:54:00
5:54 PM,59.0,57.0,93,30.00,3.0,South,10.4,-,0.01,Rain,Light Rain,190,2012-10-03 21:54:00
6:54 PM,59.0,55.9,90,30.01,7.0,SSW,9.2,-,0.00,,Overcast,200,2012-10-03 22:54:00
7:54 PM,57.9,55.9,93,30.02,3.0,SSW,10.4,-,0.02,Rain,Light Rain,200,2012-10-03 23:54:00
8:54 PM,57.9,55.9,93,30.04,6.0,South,6.9,-,0.00,Rain,Light Rain,180,2012-10-04 00:54:00
9:54 PM,59.0,55.9,90,30.05,6.0,SSW,4.6,-,0.00,,Overcast,200,2012-10-04 01:54:00
10:54 PM,59.0,55.9,90,30.05,6.0,South,6.9,-,N/A,,Overcast,170,2012-10-04 02:54:00
11:54 PM,57.9,55.9,93,30.06,5.0,SSW,6.9,-,N/A,,Overcast,200,2012-10-04 03:54:00